Weather History for Palm Springs, CA

Change the Weather History Date:

Wednesday, January 22, 2014

  Actual Average Record
Temperature  
Mean Temperature 69 °F 58 °F  
Max Temperature 84 °F 70 °F 89 °F (1948)
Min Temperature 54 °F 46 °F 19 °F (1937)
Degree Days  
Heating Degree Days 0 7  
Month to date heating degree days 67 178  
Since 1 July heating degree days 348 564  
Cooling Degree Days 4 0  
Month to date cooling degree days 24 0  
Year to date cooling degree days 24 0  
Growing Degree Days 18 (Base 50)    
Moisture  
Dew Point 14 °F    
Average Humidity 11    
Maximum Humidity 18    
Minimum Humidity 4    
Precipitation  
Precipitation 0.00 in 0.03 in 1.93 in (1943)
Month to date precipitation 0.00 0.86  
Year to date precipitation 0.00 0.86  
Since 1 July precipitation 1.26 3.66  
Snow  
Snow 0.00 in - - ()
Month to date snowfall 0.0  
Year to date snowfall 0.0  
Since 1 July snowfall 0.0  
Snow Depth 0.00 in    
Sea Level Pressure  
Sea Level Pressure 29.95 in    
Wind  
Wind Speed 4 mph (NNW)    
Max Wind Speed 10 mph    
Max Gust Speed 12 mph    
Visibility 10 miles    
Events      
T = Trace of Precipitation, MM = Missing Value Source: NWS Daily Summary

Daily Weather History Graph

Daily Weather History Graph

Search for Another Location

Airport:

Trip Planner

Search our weather history database for the weather conditions in past years. The results will help you decide how hot, cold, wet, or windy it might be!

Date:

Astronomy

Jan. 22, 2014 Rise Set
Actual Time 6:48 AM PST 5:07 PM PST
Civil Twilight 6:21 AM PST 5:33 PM PST
Nautical Twilight 5:51 AM PST 6:04 PM PST
Astronomical Twilight 5:21 AM PST 6:34 PM PST
Moon 11:23 PM PST (1/22) 10:11 AM PST (1/22)
Length of Visible Light 11h 12m
Length of Day
10h 18m
Waning Gibbous, 64% of the Moon is Illuminated
Jan 22
Waning Gibbous
Jan 23
Last Quarter
Jan 30
New
Feb 6
First Quarter
Feb 14
Full

Hourly Weather History & Observations

Time (PST) Temp. Dew Point Humidity Pressure Visibility Wind Dir Wind Speed Gust Speed Precip Events Conditions
12:53 AM 62.1 °F 10.9 °F 13% 30.06 in 10.0 mi NNW 5.8 mph - N/A   Clear
1:53 AM 63.0 °F 10.9 °F 13% 30.05 in 10.0 mi WNW 5.8 mph - N/A   Clear
2:53 AM 62.1 °F 12.9 °F 15% 30.04 in 10.0 mi NNW 4.6 mph - N/A   Clear
3:53 AM 60.1 °F 15.1 °F 17% 30.02 in 10.0 mi NNW 6.9 mph - N/A   Clear
4:53 AM 61.0 °F 10.9 °F 14% 30.01 in 10.0 mi NNW 6.9 mph - N/A   Clear
5:53 AM 59.0 °F 12.9 °F 16% 30.02 in 10.0 mi NW 6.9 mph - N/A   Clear
6:53 AM 55.9 °F 12.9 °F 18% 30.02 in 10.0 mi NNW 8.1 mph - N/A   Clear
7:53 AM 60.1 °F 12.9 °F 16% 30.02 in 10.0 mi NNW 4.6 mph - N/A   Mostly Cloudy
8:53 AM 66.9 °F 16.0 °F 14% 30.01 in 10.0 mi NNE 3.5 mph - N/A   Clear
9:53 AM 72.0 °F 15.1 °F 11% 30.01 in 10.0 mi Calm Calm - N/A   Mostly Cloudy
10:53 AM 73.9 °F 18.0 °F 12% 29.99 in 10.0 mi Calm Calm - N/A   Clear
11:53 AM 78.1 °F 10.9 °F 8% 29.94 in 10.0 mi Calm Calm - N/A   Scattered Clouds
12:53 PM 82.0 °F 3.9 °F 5% 29.90 in 10.0 mi SW 4.6 mph - N/A   Partly Cloudy
1:53 PM 82.0 °F 1.0 °F 4% 29.87 in 10.0 mi Calm Calm - N/A   Partly Cloudy
2:53 PM 82.9 °F 1.0 °F 4% 29.86 in 10.0 mi South 4.6 mph - N/A   Clear
3:53 PM 82.0 °F 5.0 °F 5% 29.85 in 10.0 mi South 3.5 mph - N/A   Clear
4:53 PM 78.1 °F 18.0 °F 10% 29.85 in 10.0 mi East 4.6 mph - N/A   Clear
5:53 PM 71.1 °F 24.1 °F 17% 29.87 in 10.0 mi ESE 3.5 mph - N/A   Clear
6:53 PM 69.1 °F 21.0 °F 16% 29.87 in 10.0 mi East 3.5 mph - N/A   Clear
7:53 PM 63.0 °F 27.0 °F 26% 29.89 in 10.0 mi Calm Calm - N/A   Clear
8:53 PM 63.0 °F 24.1 °F 23% 29.90 in 10.0 mi NNW 5.8 mph - N/A   Clear
9:53 PM 60.1 °F 15.1 °F 17% 29.91 in 10.0 mi NNW 5.8 mph - N/A   Clear
10:53 PM 59.0 °F 17.1 °F 20% 29.91 in 10.0 mi NNW 5.8 mph - N/A   Clear
11:53 PM 57.9 °F 21.0 °F 24% 29.91 in 10.0 mi NNW 6.9 mph - N/A   Clear